Hourly Data Report for June 04, 2020

BORDEN AWOS
ONTARIO
Current Station Operator: DND

44°16'20.000" N
79°54'42.000" W
222.50 m
611B002
71534
YBN

Download Data

Hourly Data (June 2020)
Hourly Data Report for June 4, 2020
TIME
LST
Temp Definition
°C
Dew Point Definition
°C
Rel Hum Definition
%
Precip. Amount Definition
mm

Wind Dir Definition
10's deg

Wind Spd Definition
km/h
Visibility Definition
km
Stn Press Definition
kPa
Hmdx Definition


Wind Chill Definition


Weather Definition


00:00 13.2 11.5 89   18 4 14.5 98.06     LegendNANA
01:00 13.9 12.2 90     0 14.5 98.09     LegendNANA
02:00 12.0 10.9 93   22 4 14.5 98.09     LegendNANA
03:00 12.3 11.4 94   21 4 14.5 98.10     LegendNANA
04:00 12.0 11.1 94   19 6 14.5 98.09     LegendNANA
05:00 12.3 10.9 91   22 4 14.5 98.14     LegendNANA
06:00 14.9 13.5 91     0 14.5 98.11     LegendNANA
07:00 17.4 13.0 75   23 7 14.5 98.14     LegendNANA
08:00 20.9 12.2 58   26 4 14.5 98.16     LegendNANA
09:00 23.7 14.1 55   26 4 14.5 98.15 27   LegendNANA
10:00 24.7 14.6 53   35 11 14.5 98.17 28   LegendNANA
11:00 24.9 14.8 54   36 15 14.5 98.18 29   LegendNANA
12:00 25.0 14.1 51   34 13 14.5 98.20 28   LegendNANA
13:00 26.4 14.5 48   34 11 14.5 98.17 30   LegendNANA
14:00 26.4 13.4 45   1 9 14.5 98.16 29   LegendNANA
15:00 25.8 13.3 46   1 9 14.5 98.14 29   LegendNANA
16:00 25.1 13.0 47   36 7 14.5 98.13 28   LegendNANA
17:00 24.8 13.3 49   34 11 14.5 98.16 28   LegendNANA
18:00 23.3 13.1 53   36 9 14.5 98.17 26   LegendNANA
19:00 21.6 12.8 57   32 7 14.5 98.23     LegendNANA
20:00 18.9 13.0 69   34 6 14.5 98.25     LegendNANA
21:00 15.7 13.4 86   31 4 14.5 98.32     LegendNANA
22:00 13.9 12.5 91     0 14.5 98.33     LegendNANA
23:00 13.7 12.8 94     0 14.5 98.34     LegendNANA

Notes on Data Quality.

Legend

  • E = Estimated
  • M = Missing
  • NA = Not Available*
  • [empty] = Indicates an unobserved value
Date modified: